Regional Weather Roundup
Issued by NWS

Home | Current Version | Previous Version | Graphics & Text | Print | Product List | Glossary On
Versions: 1 2 3 4 5 6 7 8 9 10 11 12 13 14 15 16 17 18 19 20 21 22 23 24 25 26 27 28 29 30 31 32 33 34 35 36 37 38 39 40 41 42 43 44 45 46 47 48 49 50
000
ASUS43 KLSX 192207
RWRMO

WEATHER SUMMARY FOR MISSOURI
NATIONAL WEATHER SERVICE SPRINGFIELD MO
500 PM CDT FRI SEP 19 2014

NOTE: "FAIR" INDICATES FEW OR NO CLOUDS BELOW 12,000 FEET WITH NO
       SIGNIFICANT WEATHER AND/OR OBSTRUCTIONS TO VISIBILITY.
       CURRENT SKY AND/OR WEATHER CONDITIONS ARE NOT AVAILABLE FOR
       CHILLICOTHE AND FARMINGTON.

MOZ001>031-035>038-043-044-053-054-192300-
...NORTHERN AND WESTERN MISSOURI...

CITY           SKY/WX    TMP DP  RH WIND       PRES   REMARKS
KANSAS CTY INT MOSUNNY   77  69  76 S13       29.95F
KANSAS C DTWN  MOSUNNY   79  68  69 S13       29.94F
LEE`S SUMMIT   PTSUNNY   78  68  71 S8        29.97F
ST JOSEPH      SUNNY     77  68  73 S13       29.92F
CHILLICOTHE      N/A     77  66  68 S9G17     29.96F
KIRKSVILLE     SUNNY     76  61  59 S14       29.98F

$$
MOZ066>068-077>081-088>096-101>105-192300-
...SOUTHWEST MISSOURI...

CITY           SKY/WX    TMP DP  RH WIND       PRES   REMARKS
SPRINGFIELD    MOSUNNY   78  64  61 SE8       30.01F
JOPLIN         PTSUNNY   79  67  66 S7        29.99F

$$
MOZ032>034-039>042-045>050-055>058-069>072-192300-
...CENTRAL MISSOURI...

CITY           SKY/WX    TMP DP  RH WIND       PRES   REMARKS
COLUMBIA       SUNNY     77  62  59 S9        30.00F
JEFFERSON CITY SUNNY     79  60  52 S7        29.99F
ROLLA          HAZE      76  59  55 S8        30.01S VSB 1/4
SEDALIA        MOSUNNY   78  64  61 S9        29.99F
WHITEMAN AFB   MOSUNNY   77  67  69 S8        29.97F
OSAGE BEACH    MOSUNNY   79  63  57 S6        30.00F

$$
MOZ051-052-059>065-192300-
...EAST CENTRAL MISSOURI...

CITY           SKY/WX    TMP DP  RH WIND       PRES   REMARKS
ST LOUIS INTL  MOSUNNY   79  58  48 SE9       30.01F
SPIRIT OF STL  MOSUNNY   78  58  49 VRB5      30.00F
ST CHARLES     SUNNY     78  58  49 S10       30.00F

$$
MOZ072>076-082>087-097>100-106>115-192300-
...SOUTH CENTRAL AND SOUTHEAST MISSOURI...

CITY           SKY/WX    TMP DP  RH WIND       PRES   REMARKS
CAPE GIRARDEAU SUNNY     79  58  48 CALM      30.01S
FARMINGTON     SUNNY     77  59  53 SE5       30.05S
POPLAR BLUFF   SUNNY     81  58  45 E5        30.00S
WEST PLAINS    MOSUNNY   77  62  59 S7        30.04S

$$


USA.gov is the U.S. government's official web portal to all federal, state and local government web resources and services.